Location: Goettingen
(51.5300°N, 9.9433°E)
Time: 20:49:57
(UTC+02:00)

ISS - Pass Details

Date: 28 May 2017
Orbit: 400 x 408 km, 51.6° (Epoch: 20 July)

Event Time Altitude Azimuth Distance (km) Brightness Sun altitude
Rises 03:06:07 0° 282° (WNW) 2,340 -0.1 -13.2°
Reaches altitude 10° 03:08:32 10° 265° (W) 1,473 -1.3 -13.0°
Enters shadow 03:09:18 14° 255° (WSW) 1,253 -1.7 -13.0°
